« Back
NWS Peachtree City, Ga » Text Product » GA Regional Weather Roundup


Printer-friendly Version
Current Version              Previous Versions:   1  2  3  4  5  6  7  8  9  

Regional Weather Roundup

582
ASUS42 KFFC 190803
RWRGA
WEATHER ROUNDUP FOR GEORGIA
NATIONAL WEATHER SERVICE PEACHTREE CITY GA
300 AM EST FRI DEC 19 2014

NOTE: "FAIR" INDICATES FEW OR NO CLOUDS BELOW 12,000 FEET WITH NO
SIGNIFICANT WEATHER AND/OR OBSTRUCTIONS TO VISIBILITY.

* = USE WITH CAUTION. THE STATIONS MARKED WITH AN ASTERISK MAY NOT
REPORT WEATHER SUCH AS PRECIPITATION, FOG, OR THUNDER AND ARE NOT
QUALITY CONTROLLED BY NWS.

THE REMARK "TC" DENOTES TEMPERATURE READING IN DEGREES CELSIUS.

GAZ001>058-190900-
NORTH GEORGIA

CITY           SKY/WX    TMP DP  RH WIND       PRES   REMARKS
ATLANTA        MOCLDY    39  33  79 NW6       30.12F WCI  35
ATHENS         PTCLDY    39  33  79 W5        30.10S
CHAMBLEE       PTCLDY    39  32  76 NW5       30.12F
PEACHTREE CITY PTCLDY    34  32  92 CALM      30.14F
ROME           CLEAR     33  32  96 CALM      30.16F
WEST ATLANTA   PTCLDY    38  32  79 W3        30.13F
GAINESVILLE    CLEAR     38  33  82 W5        30.11F WCI  34
CARTERSVILLE   PTCLDY    32  30  92 CALM      30.16F


CITY           SKY/WX    TMP DP  RH WIND       PRES   REMARKS
DALTON*        CLEAR     34  34 100 CALM      30.17S
MARIETTA       PTCLDY    40  33  76 NW5       30.12F
$$

GAZ059>098-102>109-190900-
CENTRAL GEORGIA

CITY           SKY/WX    TMP DP  RH WIND       PRES   REMARKS
AUGUSTA-BUSH   CLOUDY    36  36 100 CALM      30.10S
AUGUSTA-DANIEL CLOUDY    49  36  61 W7        30.10R
COLUMBUS       PTCLDY    42  34  73 CALM      30.15R
MACON          CLEAR     40  33  76 NW6       30.13F
ROBINS AFB     CLEAR     40  33  77 NW5       30.13F


CITY           SKY/WX    TMP DP  RH WIND       PRES   REMARKS
LAGRANGE*      PTCLDY    37  37  97 CALM      30.15S
SYLVANIA*      MOCLDY    42  42  99 CALM      30.11S
MILLEDGEVILLE* CLEAR     45  37  76 NW3       30.12F
$$

GAZ099>101-110>166-190900-
SOUTH GEORGIA

CITY           SKY/WX    TMP DP  RH WIND       PRES   REMARKS
SAVANNAH       MOCLDY    46  40  79 CALM      30.11S
VALDOSTA       PTCLDY    43  40  89 CALM      30.12S
ALMA           PTCLDY    48  36  63 NW6       30.12S
ST SIMONS      PTCLDY    47  42  83 W3        30.10F
FT STEWART     MOCLDY    43  40  88 CALM      30.09F
ALBANY         MOCLDY    42  38  85 N5        30.15F
HUNTER AFB     MOCLDY    46  40  80 W5        30.08F
MOODY AFB      MOCLDY    45  41  85 N2        30.11F
BRUNSWICK      PTCLDY    45  43  93 CALM      30.11S


CITY           SKY/WX    TMP DP  RH WIND       PRES   REMARKS
BAINBRIDGE*    CLOUDY    46  43  87 CALM      30.13F
MOULTRIE*      MOCLDY    45  43  93 CALM      30.12F
VIDALIA*       MOCLDY    46  37  71 CALM      30.11S
WAYCROSS*      PTCLDY    46  44  92 CALM      30.12S
DOUGLAS*       MOCLDY    50  36  57 CALM      30.13F
$$



USA.gov is the U.S. government's official web portal to all federal, state and local government web resources and services.